This is the latest recevied weather packets stored in our database for station/object F1AGU-13. If no packets are shown the sender has not sent any weather packets the latest 10 day(s).
| Time | Temp. | Humidity | Pressure | Rain* | Wind** | Luminosity | Snow |
|---|---|---|---|---|---|---|---|
| 1778020517 | 7.22° C | 96% | 1010.6 hPa | 1.52 mm | - | - | - |
| 1778019917 | 7.22° C | 96% | 1010.5 hPa | 1.78 mm | - | - | - |
| 1778019317 | 7.22° C | 96% | 1010.6 hPa | 2.29 mm | - | - | - |
| 1778018717 | 7.78° C | 96% | 1010.9 hPa | 2.29 mm | - | - | - |
| 1778018117 | 7.22° C | 96% | 1011.3 hPa | 1.78 mm | - | - | - |
| 1778017517 | 7.78° C | 96% | 1011.4 hPa | 1.27 mm | - | - | - |
| 1778016917 | 7.78° C | 96% | 1011.5 hPa | 0.76 mm | - | - | - |
| 1778016317 | 7.78° C | 96% | 1011.6 hPa | 1.02 mm | - | - | - |
| 1778015717 | 7.78° C | 96% | 1011.5 hPa | 2.03 mm | - | - | - |
| 1778015117 | 7.78° C | 96% | 1011.7 hPa | 2.79 mm | - | - | - |
| 1778014517 | 7.78° C | 96% | 1011.5 hPa | 3.81 mm | - | - | - |
| 1778013917 | 7.78° C | 95% | 1011.5 hPa | 4.83 mm | - | - | - |
| 1778013317 | 7.78° C | 95% | 1011.5 hPa | 5.33 mm | - | - | - |
| 1778012717 | 7.78° C | 95% | 1011.8 hPa | 5.08 mm | - | - | - |
| 1778012117 | 7.78° C | 95% | 1012 hPa | 3.81 mm | - | - | - |
| 1778011517 | 7.78° C | 94% | 1011.5 hPa | 2.79 mm | - | - | - |
| 1778010917 | 7.78° C | 94% | 1011.2 hPa | 1.78 mm | - | - | - |
| 1778010317 | 7.78° C | 94% | 1011.3 hPa | 0.76 mm | - | - | - |
| 1778009717 | 7.78° C | 94% | 1010.8 hPa | 1.52 mm | - | - | - |
| 1778009117 | 7.78° C | 93% | 1010.7 hPa | 4.57 mm | - | - | - |
| 1778008517 | 7.78° C | 93% | 1010.5 hPa | 5.84 mm | - | - | - |
| 1778007917 | 7.78° C | 92% | 1010.2 hPa | 6.86 mm | - | - | - |
| 1778007317 | 7.78° C | 90% | 1010.2 hPa | 7.37 mm | - | - | - |
| 1778006717 | 8.33° C | 89% | 1010.6 hPa | 7.37 mm | - | - | - |
| 1778006117 | 8.89° C | 86% | 1011 hPa | 6.1 mm | - | - | - |
* Rain latest hour (hover to see other rain measurements)
** Current wind speed in m/s (hover to see current wind gust speed)